Location: Unspecified
(0.0000°N, 0.0000°E)
Time: 09:47:15
(UTC+00:00)

Vanguard 2 - Pass Details

Date: 28 October 2021
Orbit: 554 x 2936 km, 32.9° (Epoch: 06 December)

Event Time Altitude Azimuth Distance (km) Brightness Sun altitude
Rises 07:07:03 0° 324° (NW) 3,381 10.4 20.2°
Reaches altitude 10° 07:10:28 10° 341° (NNW) 2,160 9.6 21.1°
Maximum altitude 07:13:55 20° 29° (NNE) 1,421 9.2 21.9°
Drops below altitude 10° 07:16:55 10° 77° (ENE) 1,840 10.8 22.6°
Sets 07:19:31 0° 96° (E) 2,714 11.8 23.3°
